Voltar ao catálogo

ERMIS2

AtivoCiênciaSSO
NORAD 68420·PAYLOAD·🇬🇷 Greece

Lançado Mar 30, 2026 de Vandenberg Space Force Base

Loading…

Próximas Passagens (próximas 24 horas)

TLE

AtualizadoSource: Space-Track

Época: Sep 14, 2026, 03:07 UTC

1 68420U 26067E   26257.12999321  .00008358  00000-0  37793-3 0  9995
2 68420  97.4567 214.6283 0001358  57.0194 303.1172 15.21178531 25467

Acompanhe ERMIS2 em tempo real com AllMySat

Download on the App Store